SCP
0 0 0 0 0 0 0 0 0 0 0 0 0 -0 -0 0 -0 -0 -0 -0 -0 -0 -0 -0 -0 0 0 -0 0 0 -0 -0 0 0 -0 0 0 0 0 0 0 0 0 0 0 0 0
0 0 0 0 0 0 0 0 0 0 0 0 0 -0 -0 -0 0 -0 -0 -0 -0 -0 -0 -0 -0 0 0 -0 0 0 0 -0 0 0 0 0 0 0 0 0 0 0 0 0 0 0 0
0 0 0 0 -0 -0 -0 -0 -0 0 0 0 0 -0 -0 -0 0 0 -0 -0 -0 -0 -0 0 0 0 -0 -0 0 -0 -0 0 0 0 0 0 0 0 0 0 0 0 0 0 0 0 0
0 0 0 0 -0 -0 -0 -0 -0 -0 -0 -0 0 -0 -0 -0 -0 0 -0 0 -0 0 0 0 0 0 -0 0 0 0 0 0 0 0 0 0 0 0 0 0 0 0 0 0 0 0 0
0 0 0 0 0 -0 -0 -0 -0 -0 -0 -0 -0 -0 -0 -0 -0 -0 -0 0 0 0 0 0 0 0 0 0 0 0 0 0 0 -0 0 0 0 0 0 0 0 0 0 0 0 0 0
0 0 0 0 0 0 -0 -0 -0 -0 -0 -0 -0 -0 -0 -0 -0 -0 -0 0 0 0 0 0 0 0 0 -0 0 0 0 0 0 0 0 -0 -0 0 0 0 0 0 0 0 0 0 0
0 0 0 0 0 0 -0 -0 -0 -0 -0 -0 -0 -0 -0 -0 -0 -0 0 -0 0 0 0 0 0 0 0 0 0 0 0 0 0 0 -0 0 -0 0 -0 -0 0 0 0 0 0 0 0
0 0 0 0 0 0 0 0 -0 -0 -0 -0 -0 -0 -0 -0 -0 -0 -0 -0 0 0 0 0 0 0 -0 0 0 0 0 0 -0 -0 0 -0 0 -0 0 -0 -0 0 0 0 0 0 0
0 0 0 0 0 0 0 0 0 -0 -0 -0 -0 -0 -0 -0 -0 0 0 -0 -0 -0 0 0 0 0 0 -0 0 0 0 0 0 0 0 -0 -0 -0 -0 0 0 0 0 0 0 0 0
0 0 0 0 0 0 0 0 0 -0 -0 -0 -0 -0 -0 -0 0 0 0 0 -0 -0 0 0 0 0 0 0 0 0 0 0 0 -0 0 -0 -0 0 0 -0 0 0 0 0 0 0 0
0 0 0 0 0 0 0 0 0 0 -0 -0 -0 -0 -0 0 0 0 0 0 -0 0 0 0 0 0 0 0 0 0 0 0 0 0 0 -0 0 0 0 0 0 0 0 0 0 0 0
0 0 0 0 0 0 0 0 0 0 0 -0 -0 -0 -0 -0 0 0 0 0 0 0 0 0 0 0 0 0 0 0 0 0 0 0 0 -0 0 0 -0 0 0 0 0 0 0 0 0
0 0 0 0 0 0 0 0 0 0 0 0 0 -0 0 0 0 0 0 0 0 0 0 0 0 0 0 0 0 0 0 0 0 0 0 0 0 -0 0 0 0 0 0 0 0 -0 0
0 0 0 0 0 0 0 0 0 0 0 0 -0 -0 -0 0 0 0 0 0 0 0 0 0 -0 0 0 0 0 0 0 0 0 0 0 0 0 0 0 0 0 0 0 0 0 0 0
0 0 0 0 0 0 0 0 0 0 0 0 0 0 0 0 0 -0 0 0 0 0 0 0 0 0 0 0 0 0 0 -0 0 0 0 0 0 0 0 0 0 0 0 0 0 0 0
0 0 0 0 0 0 0 0 0 0 0 0 0 0 0 0 0 0 0 0 0 0 0 0 0 0 0 -0 -0 -0 -0 -0 -0 0 0 0 0 0 0 0 0 0 0 0 0 0 0
0 0 0 0 0 0 0 0 0 0 0 0 0 0 0 0 0 0 0 0 0 0 0 0 0 0 0 0 -0 -0 -0 -0 0 0 0 0 0 0 0 0 0 0 0 0 0 0 0
0 0 0 0 0 0 0 0 0 0 0 0 0 0 0 0 0 0 0 0 0 0 0 0 0 0 0 0 0 0 -0 -0 0 -0 -0 0 0 0 0 0 0 0 0 0 0 0 0
0 0 0 0 0 0 0 0 0 0 0 0 0 0 0 0 0 0 0 0 0 0 0 0 0 0 0 0 0 0 0 0 0 0 -0 0 0 0 0 0 0 0 0 0 0 0 0
0 0 0 0 0 0 0 0 0 0 0 0 0 0 0 0 0 0 0 0 0 0 0 0 0 0 0 0 0 0 0 0 0 0 -0 0 0 0 0 0 0 0 0 0 0 0 0
0 0 0 0 0 0 0 0 0 0 0 0 0 0 0 0 0 0 0 0 0 0 0 0 0 0 0 0 0 0 0 0 0 0 0 0 0 0 0 0 0 0 0 0 0 0 0
0 0 0 0 0 0 0 0 0 0 0 0 0 0 0 0 0 0 0 0 0 0 0 0 0 0 0 0 0 0 0 0 0 0 0 0 0 0 0 0 0 0 0 0 0 0 0
0 0 0 0 0 0 0 0 0 0 0 0 0 0 0 0 0 0 0 0 0 0 0 0 0 0 0 0 0 0 0 0 0 0 0 0 0 0 0 0 0 0 0 0 0 0 0
0 0 0 0 0 0 0 0 0 0 0 0 0 0 0 0 0 0 0 0 0 0 0 0 0 0 0 0 0 0 0 0 0 0 0 0 0 0 0 0 0 0 0 0 0 0 0
0 0 0 0 0 0 0 0 0 0 0 0 0 0 0 0 0 0 0 0 0 0 0 0 0 0 0 0 0 0 0 0 0 0 0 0 0 0 0 0 0 0 0 0 0 0 0
0 0 0 0 0 0 0 0 0 0 0 0 0 0 0 0 0 0 0 0 0 0 0 0 0 0 0 0 0 0 0 -0 0 0 0 0 0 0 0 0 0 0 0 0 0 0 0
0 0 0 0 0 0 0 0 0 0 0 0 0 0 0 0 0 0 0 0 0 0 0 0 0 0 0 0 0 0 0 0 0 0 0 0 0 0 0 0 0 0 0 0 0 0 0
0 0 0 0 0 0 0 0 0 0 0 0 0 0 0 0 0 0 0 0 0 0 0 0 0 0 0 0 0 0 0 0 0 0 0 0 0 0 0 0 0 0 0 0 0 0 0
0 0 0 0 0 0 0 0 0 0 0 0 0 0 0 0 0 0 0 0 0 0 0 0 0 0 0 0 0 0 0 0 0 0 0 0 0 0 0 0 0 0 0 0 0 0 0
Wind_Speed_500mb
24 26 26 27 27 29 30 32 33 33 34 35 36 35 33 33 35 38 44 43 41 39 30 10 6 13 15 9 6 6 18 17 5 3 4 4 14 6 9 7 7 3 5 11 10 27 26
23 24 25 27 29 29 30 33 30 32 34 34 35 35 33 33 33 37 44 38 39 35 25 9 7 16 13 8 8 12 23 15 10 11 19 12 3 11 15 5 4 4 9 5 10 25 19
23 23 24 26 27 29 31 31 31 31 33 33 35 35 33 33 33 35 39 40 38 34 17 6 7 16 15 9 13 22 22 17 11 6 12 19 11 10 8 5 6 9 8 9 1 15 4
22 24 24 25 26 26 28 29 31 30 32 32 34 34 32 32 31 33 35 43 36 17 9 5 8 13 8 15 21 25 22 15 7 3 7 6 5 11 5 16 9 10 9 4 6 22 7
20 22 24 25 26 26 28 29 28 29 32 32 33 32 32 31 29 31 37 35 15 15 22 3 9 9 5 12 11 21 20 9 4 8 10 10 9 9 12 8 7 10 5 11 12 23 8
22 22 23 24 25 26 27 28 28 28 31 32 31 32 31 30 28 30 32 29 7 9 27 4 1 4 6 7 6 16 17 13 4 8 9 5 5 6 7 7 9 8 7 7 11 14 12
21 23 23 24 24 25 26 27 26 28 30 31 31 31 30 27 26 26 27 35 13 4 32 6 11 10 6 3 11 13 17 11 7 0 4 5 9 6 16 19 10 4 6 9 7 7 12
22 22 24 25 25 25 25 26 26 28 29 30 30 30 31 25 23 17 19 35 33 24 19 29 27 38 26 13 2 7 18 12 7 4 3 8 3 8 10 2 7 6 6 10 2 4 8
23 24 25 26 27 26 26 26 27 27 28 29 29 30 30 25 19 10 8 28 34 26 8 18 14 19 14 12 8 14 19 11 4 4 2 6 9 20 9 10 6 6 8 3 4 4 4
25 26 27 27 28 27 27 28 28 27 27 28 28 30 30 26 6 19 2 25 33 17 8 12 7 9 16 7 4 9 18 8 4 4 9 3 9 10 17 6 6 7 6 9 8 7 5
32 28 28 29 30 29 28 28 29 28 26 27 27 29 27 26 26 21 15 24 29 2 5 2 6 7 20 16 9 13 16 17 12 6 8 11 8 13 7 9 0 6 7 10 7 7 3
36 33 30 31 31 31 30 29 30 29 28 26 26 29 27 27 25 9 26 28 6 9 2 3 6 7 9 5 4 6 10 9 5 8 2 9 9 6 8 5 7 11 9 14 8 5 8
36 34 32 32 33 32 31 31 31 32 31 26 27 27 30 28 23 23 26 18 9 6 7 1 6 5 4 3 1 4 5 4 8 7 7 12 10 8 6 6 9 8 11 6 9 11 7
33 34 33 32 33 33 33 31 33 33 32 29 27 28 28 25 19 16 17 8 7 3 8 8 5 7 11 9 6 2 6 3 3 10 6 6 14 3 8 4 7 6 8 10 3 2 9
33 32 32 31 32 33 33 32 32 33 33 31 27 26 24 12 7 5 7 6 8 5 6 11 3 8 2 5 6 5 10 8 13 16 15 10 10 7 4 5 6 3 3 6 12 6 4
34 32 32 31 30 31 32 32 32 31 31 31 28 25 8 7 10 3 8 8 7 8 11 4 4 5 6 2 8 11 11 6 9 26 14 13 3 5 9 7 12 5 8 5 7 0 6
36 35 32 30 28 29 29 30 31 29 26 28 23 12 12 17 11 2 4 9 10 22 13 3 5 4 3 1 7 9 9 6 4 5 14 10 8 11 3 2 9 2 2 11 9 7 8
38 37 35 31 29 27 26 27 28 27 23 21 14 6 17 24 3 4 2 7 13 14 9 4 5 4 2 4 6 5 6 8 12 17 12 1 9 2 12 7 5 2 7 9 9 8 4
34 37 36 34 30 27 24 23 24 23 19 18 17 8 1 11 5 4 10 8 9 7 9 9 7 6 6 6 7 4 6 5 10 5 14 12 6 6 16 12 8 3 4 9 9 6 9
29 34 37 37 32 28 22 21 20 19 14 14 10 6 2 11 3 7 6 9 9 14 11 5 4 6 8 14 12 6 9 13 15 12 16 9 7 11 11 11 6 9 6 6 8 6 7
29 31 37 37 34 29 22 20 18 16 12 7 6 4 2 3 5 2 1 6 9 11 5 10 7 5 2 8 8 9 9 10 11 10 7 8 7 7 8 11 5 6 2 7 10 7 9
29 31 34 40 36 30 24 20 18 15 13 10 5 8 7 6 10 1 1 6 7 10 2 6 9 6 5 8 5 2 2 3 3 9 6 6 2 3 4 4 7 5 9 6 4 5 13
30 32 35 39 39 32 25 22 20 17 16 8 4 12 10 5 4 4 7 8 8 11 3 2 15 7 7 3 3 5 7 9 6 5 3 5 9 6 8 8 8 8 6 6 3 9 3
32 33 35 38 41 34 27 24 23 21 20 18 4 8 6 6 2 6 5 13 10 8 4 3 11 8 2 6 4 4 2 8 4 14 1 9 9 5 6 6 0 12 2 3 10 4 7
34 34 35 39 41 34 29 27 26 24 23 23 22 4 7 6 8 10 13 9 22 15 8 4 4 8 2 5 8 10 11 13 10 13 10 6 9 5 6 5 9 4 1 1 1 10 5
34 34 35 35 40 34 30 28 28 26 26 26 25 20 9 7 9 8 7 8 4 6 6 1 6 6 2 10 8 6 4 5 8 10 6 9 12 8 5 5 9 7 4 5 5 10 11
35 36 36 37 38 35 31 30 30 28 26 25 24 21 15 10 10 6 3 4 8 6 2 5 7 2 5 5 6 5 6 5 2 4 8 7 7 6 3 3 11 6 9 3 5 14 20
34 36 36 38 39 35 33 32 31 29 27 26 26 25 25 11 35 22 17 12 15 8 2 7 4 6 8 8 6 5 3 3 4 2 1 3 4 1 4 3 7 5 6 7 9 16 22
34 34 36 36 36 34 34 33 33 30 28 27 27 25 28 31 21 21 28 23 29 20 13 6 4 1 4 9 2 5 3 3 4 2 1 2 9 6 12 10 11 18 27 32 36 28 17
Wind_Direction_500mb
298 301 305 304 306 308 310 312 315 320 323 325 325 330 335 339 344 343 344 345 343 339 335 309 204 171 159 161 173 151 144 169 171 335 340 238 189 166 111 105 126 56 347 203 203 182 174
296 300 304 304 305 306 305 307 309 312 318 321 321 323 327 332 338 340 341 341 336 335 331 306 212 174 170 156 197 171 156 164 96 34 51 60 301 112 108 106 128 95 66 358 177 168 174
298 298 304 303 305 306 304 307 307 309 313 317 319 321 321 326 333 336 340 337 328 327 321 283 208 185 184 155 154 160 154 161 135 69 23 32 119 6 99 65 71 79 71 6 96 174 188
306 306 305 303 304 304 306 307 306 310 311 316 319 321 320 324 331 334 341 337 337 17 335 257 202 192 192 178 164 171 166 176 160 8 325 310 172 108 111 127 30 61 38 34 254 159 211
307 305 307 307 306 309 309 308 308 310 311 316 319 322 320 326 332 333 344 336 342 37 24 292 185 188 210 198 196 191 190 181 145 347 320 201 192 91 133 105 25 17 205 210 329 197 139
311 310 307 307 307 307 305 307 310 310 311 314 320 322 322 329 333 338 355 335 284 305 2 59 184 191 204 158 195 214 215 207 268 341 67 113 97 54 47 77 250 209 221 224 216 213 191
308 313 313 312 308 306 304 305 310 310 311 313 320 322 323 331 332 348 8 27 16 310 338 251 288 279 249 256 230 208 203 220 255 82 99 74 74 241 251 221 213 191 198 244 225 212 156
303 309 314 314 314 312 309 308 309 309 311 314 319 323 323 332 332 349 10 40 20 317 307 295 264 265 255 278 194 193 179 178 190 162 153 26 301 249 321 96 148 148 255 268 114 12 160
299 305 311 313 316 317 313 309 307 307 311 315 320 324 323 331 332 350 12 12 353 343 276 294 242 241 240 215 205 185 184 177 128 101 66 158 266 305 16 354 113 217 201 107 58 45 89
288 299 306 312 315 318 314 310 306 305 311 316 320 322 325 335 355 351 101 341 338 332 54 280 238 218 206 196 242 198 205 173 74 157 163 285 299 334 342 323 132 332 243 122 117 60 278
276 288 299 307 313 316 315 311 307 305 309 313 317 318 326 330 326 336 318 324 330 265 40 308 187 180 177 169 149 197 205 203 160 186 96 256 312 326 331 298 182 291 61 92 96 130 107
269 277 288 300 309 314 316 314 310 307 305 308 313 314 318 317 322 330 320 330 326 44 339 34 174 152 131 217 159 115 175 184 147 135 20 228 262 222 223 24 72 120 55 39 53 70 21
264 269 278 290 303 312 316 315 312 308 304 304 308 310 310 310 313 308 322 334 49 120 334 89 183 158 108 183 187 99 121 126 151 89 341 342 282 316 219 73 25 85 65 353 3 8 241
262 267 272 282 295 307 315 316 313 309 306 305 306 306 302 310 301 302 328 45 62 300 273 306 103 91 170 166 225 106 109 220 169 99 113 143 325 1 342 107 173 40 138 145 231 263 270
258 263 268 274 286 300 312 315 314 311 309 308 310 309 311 326 273 304 333 55 211 224 281 324 37 102 239 214 153 138 182 216 215 170 165 160 271 297 34 113 107 189 42 148 105 25 40
252 258 263 268 278 293 307 313 313 312 313 315 325 329 344 181 188 344 68 238 255 234 325 326 95 130 177 155 152 149 189 213 240 194 160 212 301 255 169 89 44 134 146 34 14 163 287
245 250 258 265 270 286 301 310 312 310 312 316 332 339 348 163 178 325 146 243 284 294 283 295 42 40 55 335 172 178 193 272 243 66 137 140 118 280 59 219 204 83 340 58 116 124 175
245 246 252 260 264 277 293 304 310 309 314 317 329 343 348 163 97 29 185 208 311 300 329 321 113 55 63 174 128 205 181 233 333 148 138 115 130 222 237 266 220 142 177 133 121 242 160
249 246 248 253 260 266 285 296 305 307 320 330 325 293 360 181 130 307 299 285 271 306 303 350 47 21 12 59 86 46 23 13 55 129 161 180 31 34 348 358 358 334 110 96 103 75 192
254 245 243 245 251 257 273 283 292 295 307 320 314 356 119 205 174 129 353 297 305 309 263 344 48 45 38 31 13 60 20 355 29 70 75 110 104 143 185 213 200 312 315 142 138 114 180
256 249 241 240 242 248 260 270 277 277 278 297 293 311 12 288 335 80 27 295 320 320 323 23 23 49 274 42 30 32 3 1 20 25 53 92 126 150 212 234 226 248 322 172 211 192 172
250 251 246 237 237 244 251 250 253 262 262 264 315 341 344 287 312 284 245 268 232 272 284 348 108 13 100 111 137 6 57 40 244 355 63 9 170 90 267 263 334 264 298 260 132 132 263
249 246 246 239 232 237 241 245 244 237 230 220 289 306 312 316 62 92 228 247 268 332 322 195 166 101 72 158 225 300 294 296 282 351 93 73 123 84 267 338 5 352 281 322 102 72 317
250 244 245 235 228 233 236 235 235 229 224 216 256 317 325 287 289 198 298 305 273 260 245 260 150 126 346 331 104 85 194 316 40 27 100 130 102 103 225 17 40 242 19 212 131 172 294
248 240 244 231 223 230 232 230 229 227 224 223 228 270 343 295 282 308 321 279 288 268 244 222 131 122 57 37 53 26 350 15 11 25 20 63 117 99 147 189 279 273 166 46 176 271 225
244 236 238 229 223 227 230 226 225 224 223 224 231 243 265 314 245 332 315 329 309 319 5 62 48 154 137 75 70 111 202 196 319 352 54 54 64 111 110 161 218 255 26 12 121 292 221
238 231 232 228 222 225 227 223 222 221 222 224 230 232 224 269 285 336 7 296 344 333 267 334 342 78 71 75 82 146 237 210 236 305 336 6 10 103 106 220 292 273 314 334 84 243 219
232 227 230 224 219 223 224 220 220 218 219 221 229 227 224 254 271 280 286 299 344 356 104 351 36 3 53 72 118 203 147 256 55 316 70 143 111 198 79 51 312 240 305 190 248 281 242
230 227 223 220 215 221 221 217 219 215 216 219 235 229 229 234 258 262 270 267 282 285 280 353 124 150 142 92 110 125 124 66 145 252 93 317 176 188 173 222 245 272 258 277 296 290 295
Wind_Speed_850mb
24 26 26 27 27 29 30 32 33 33 34 35 36 35 33 33 35 38 44 43 41 39 30 10 6 13 15 9 6 6 18 17 5 3 4 4 14 6 9 7 7 3 5 11 10 27 26
23 24 25 27 29 29 30 33 30 32 34 34 35 35 33 33 33 37 44 38 39 35 25 9 7 16 13 8 8 12 23 15 10 11 19 12 3 11 15 5 4 4 9 5 10 25 19
23 23 24 26 27 29 31 31 31 31 33 33 35 35 33 33 33 35 39 40 38 34 17 6 7 16 15 9 13 22 22 17 11 6 12 19 11 10 8 5 6 9 8 9 1 15 4
22 24 24 25 26 26 28 29 31 30 32 32 34 34 32 32 31 33 35 43 36 17 9 5 8 13 8 15 21 25 22 15 7 3 7 6 5 11 5 16 9 10 9 4 6 22 7
20 22 24 25 26 26 28 29 28 29 32 32 33 32 32 31 29 31 37 35 15 15 22 3 9 9 5 12 11 21 20 9 4 8 10 10 9 9 12 8 7 10 5 11 12 23 8
22 22 23 24 25 26 27 28 28 28 31 32 31 32 31 30 28 30 32 29 7 9 27 4 1 4 6 7 6 16 17 13 4 8 9 5 5 6 7 7 9 8 7 7 11 14 12
21 23 23 24 24 25 26 27 26 28 30 31 31 31 30 27 26 26 27 35 13 4 32 6 11 10 6 3 11 13 17 11 7 0 4 5 9 6 16 19 10 4 6 9 7 7 12
22 22 24 25 25 25 25 26 26 28 29 30 30 30 31 25 23 17 19 35 33 24 19 29 27 38 26 13 2 7 18 12 7 4 3 8 3 8 10 2 7 6 6 10 2 4 8
23 24 25 26 27 26 26 26 27 27 28 29 29 30 30 25 19 10 8 28 34 26 8 18 14 19 14 12 8 14 19 11 4 4 2 6 9 20 9 10 6 6 8 3 4 4 4
25 26 27 27 28 27 27 28 28 27 27 28 28 30 30 26 6 19 2 25 33 17 8 12 7 9 16 7 4 9 18 8 4 4 9 3 9 10 17 6 6 7 6 9 8 7 5
32 28 28 29 30 29 28 28 29 28 26 27 27 29 27 26 26 21 15 24 29 2 5 2 6 7 20 16 9 13 16 17 12 6 8 11 8 13 7 9 0 6 7 10 7 7 3
36 33 30 31 31 31 30 29 30 29 28 26 26 29 27 27 25 9 26 28 6 9 2 3 6 7 9 5 4 6 10 9 5 8 2 9 9 6 8 5 7 11 9 14 8 5 8
36 34 32 32 33 32 31 31 31 32 31 26 27 27 30 28 23 23 26 18 9 6 7 1 6 5 4 3 1 4 5 4 8 7 7 12 10 8 6 6 9 8 11 6 9 11 7
33 34 33 32 33 33 33 31 33 33 32 29 27 28 28 25 19 16 17 8 7 3 8 8 5 7 11 9 6 2 6 3 3 10 6 6 14 3 8 4 7 6 8 10 3 2 9
33 32 32 31 32 33 33 32 32 33 33 31 27 26 24 12 7 5 7 6 8 5 6 11 3 8 2 5 6 5 10 8 13 16 15 10 10 7 4 5 6 3 3 6 12 6 4
34 32 32 31 30 31 32 32 32 31 31 31 28 25 8 7 10 3 8 8 7 8 11 4 4 5 6 2 8 11 11 6 9 26 14 13 3 5 9 7 12 5 8 5 7 0 6
36 35 32 30 28 29 29 30 31 29 26 28 23 12 12 17 11 2 4 9 10 22 13 3 5 4 3 1 7 9 9 6 4 5 14 10 8 11 3 2 9 2 2 11 9 7 8
38 37 35 31 29 27 26 27 28 27 23 21 14 6 17 24 3 4 2 7 13 14 9 4 5 4 2 4 6 5 6 8 12 17 12 1 9 2 12 7 5 2 7 9 9 8 4
34 37 36 34 30 27 24 23 24 23 19 18 17 8 1 11 5 4 10 8 9 7 9 9 7 6 6 6 7 4 6 5 10 5 14 12 6 6 16 12 8 3 4 9 9 6 9
29 34 37 37 32 28 22 21 20 19 14 14 10 6 2 11 3 7 6 9 9 14 11 5 4 6 8 14 12 6 9 13 15 12 16 9 7 11 11 11 6 9 6 6 8 6 7
29 31 37 37 34 29 22 20 18 16 12 7 6 4 2 3 5 2 1 6 9 11 5 10 7 5 2 8 8 9 9 10 11 10 7 8 7 7 8 11 5 6 2 7 10 7 9
29 31 34 40 36 30 24 20 18 15 13 10 5 8 7 6 10 1 1 6 7 10 2 6 9 6 5 8 5 2 2 3 3 9 6 6 2 3 4 4 7 5 9 6 4 5 13
30 32 35 39 39 32 25 22 20 17 16 8 4 12 10 5 4 4 7 8 8 11 3 2 15 7 7 3 3 5 7 9 6 5 3 5 9 6 8 8 8 8 6 6 3 9 3
32 33 35 38 41 34 27 24 23 21 20 18 4 8 6 6 2 6 5 13 10 8 4 3 11 8 2 6 4 4 2 8 4 14 1 9 9 5 6 6 0 12 2 3 10 4 7
34 34 35 39 41 34 29 27 26 24 23 23 22 4 7 6 8 10 13 9 22 15 8 4 4 8 2 5 8 10 11 13 10 13 10 6 9 5 6 5 9 4 1 1 1 10 5
34 34 35 35 40 34 30 28 28 26 26 26 25 20 9 7 9 8 7 8 4 6 6 1 6 6 2 10 8 6 4 5 8 10 6 9 12 8 5 5 9 7 4 5 5 10 11
35 36 36 37 38 35 31 30 30 28 26 25 24 21 15 10 10 6 3 4 8 6 2 5 7 2 5 5 6 5 6 5 2 4 8 7 7 6 3 3 11 6 9 3 5 14 20
34 36 36 38 39 35 33 32 31 29 27 26 26 25 25 11 35 22 17 12 15 8 2 7 4 6 8 8 6 5 3 3 4 2 1 3 4 1 4 3 7 5 6 7 9 16 22
34 34 36 36 36 34 34 33 33 30 28 27 27 25 28 31 21 21 28 23 29 20 13 6 4 1 4 9 2 5 3 3 4 2 1 2 9 6 12 10 11 18 27 32 36 28 17
Wind_Direction_850mb
298 301 305 304 306 308 310 312 315 320 323 325 325 330 335 339 344 343 344 345 343 339 335 309 204 171 159 161 173 151 144 169 171 335 340 238 189 166 111 105 126 56 347 203 203 182 174
296 300 304 304 305 306 305 307 309 312 318 321 321 323 327 332 338 340 341 341 336 335 331 306 212 174 170 156 197 171 156 164 96 34 51 60 301 112 108 106 128 95 66 358 177 168 174
298 298 304 303 305 306 304 307 307 309 313 317 319 321 321 326 333 336 340 337 328 327 321 283 208 185 184 155 154 160 154 161 135 69 23 32 119 6 99 65 71 79 71 6 96 174 188
306 306 305 303 304 304 306 307 306 310 311 316 319 321 320 324 331 334 341 337 337 17 335 257 202 192 192 178 164 171 166 176 160 8 325 310 172 108 111 127 30 61 38 34 254 159 211
307 305 307 307 306 309 309 308 308 310 311 316 319 322 320 326 332 333 344 336 342 37 24 292 185 188 210 198 196 191 190 181 145 347 320 201 192 91 133 105 25 17 205 210 329 197 139
311 310 307 307 307 307 305 307 310 310 311 314 320 322 322 329 333 338 355 335 284 305 2 59 184 191 204 158 195 214 215 207 268 341 67 113 97 54 47 77 250 209 221 224 216 213 191
308 313 313 312 308 306 304 305 310 310 311 313 320 322 323 331 332 348 8 27 16 310 338 251 288 279 249 256 230 208 203 220 255 82 99 74 74 241 251 221 213 191 198 244 225 212 156
303 309 314 314 314 312 309 308 309 309 311 314 319 323 323 332 332 349 10 40 20 317 307 295 264 265 255 278 194 193 179 178 190 162 153 26 301 249 321 96 148 148 255 268 114 12 160
299 305 311 313 316 317 313 309 307 307 311 315 320 324 323 331 332 350 12 12 353 343 276 294 242 241 240 215 205 185 184 177 128 101 66 158 266 305 16 354 113 217 201 107 58 45 89
288 299 306 312 315 318 314 310 306 305 311 316 320 322 325 335 355 351 101 341 338 332 54 280 238 218 206 196 242 198 205 173 74 157 163 285 299 334 342 323 132 332 243 122 117 60 278
276 288 299 307 313 316 315 311 307 305 309 313 317 318 326 330 326 336 318 324 330 265 40 308 187 180 177 169 149 197 205 203 160 186 96 256 312 326 331 298 182 291 61 92 96 130 107
269 277 288 300 309 314 316 314 310 307 305 308 313 314 318 317 322 330 320 330 326 44 339 34 174 152 131 217 159 115 175 184 147 135 20 228 262 222 223 24 72 120 55 39 53 70 21
264 269 278 290 303 312 316 315 312 308 304 304 308 310 310 310 313 308 322 334 49 120 334 89 183 158 108 183 187 99 121 126 151 89 341 342 282 316 219 73 25 85 65 353 3 8 241
262 267 272 282 295 307 315 316 313 309 306 305 306 306 302 310 301 302 328 45 62 300 273 306 103 91 170 166 225 106 109 220 169 99 113 143 325 1 342 107 173 40 138 145 231 263 270
258 263 268 274 286 300 312 315 314 311 309 308 310 309 311 326 273 304 333 55 211 224 281 324 37 102 239 214 153 138 182 216 215 170 165 160 271 297 34 113 107 189 42 148 105 25 40
252 258 263 268 278 293 307 313 313 312 313 315 325 329 344 181 188 344 68 238 255 234 325 326 95 130 177 155 152 149 189 213 240 194 160 212 301 255 169 89 44 134 146 34 14 163 287
245 250 258 265 270 286 301 310 312 310 312 316 332 339 348 163 178 325 146 243 284 294 283 295 42 40 55 335 172 178 193 272 243 66 137 140 118 280 59 219 204 83 340 58 116 124 175
245 246 252 260 264 277 293 304 310 309 314 317 329 343 348 163 97 29 185 208 311 300 329 321 113 55 63 174 128 205 181 233 333 148 138 115 130 222 237 266 220 142 177 133 121 242 160
249 246 248 253 260 266 285 296 305 307 320 330 325 293 360 181 130 307 299 285 271 306 303 350 47 21 12 59 86 46 23 13 55 129 161 180 31 34 348 358 358 334 110 96 103 75 192
254 245 243 245 251 257 273 283 292 295 307 320 314 356 119 205 174 129 353 297 305 309 263 344 48 45 38 31 13 60 20 355 29 70 75 110 104 143 185 213 200 312 315 142 138 114 180
256 249 241 240 242 248 260 270 277 277 278 297 293 311 12 288 335 80 27 295 320 320 323 23 23 49 274 42 30 32 3 1 20 25 53 92 126 150 212 234 226 248 322 172 211 192 172
250 251 246 237 237 244 251 250 253 262 262 264 315 341 344 287 312 284 245 268 232 272 284 348 108 13 100 111 137 6 57 40 244 355 63 9 170 90 267 263 334 264 298 260 132 132 263
249 246 246 239 232 237 241 245 244 237 230 220 289 306 312 316 62 92 228 247 268 332 322 195 166 101 72 158 225 300 294 296 282 351 93 73 123 84 267 338 5 352 281 322 102 72 317
250 244 245 235 228 233 236 235 235 229 224 216 256 317 325 287 289 198 298 305 273 260 245 260 150 126 346 331 104 85 194 316 40 27 100 130 102 103 225 17 40 242 19 212 131 172 294
248 240 244 231 223 230 232 230 229 227 224 223 228 270 343 295 282 308 321 279 288 268 244 222 131 122 57 37 53 26 350 15 11 25 20 63 117 99 147 189 279 273 166 46 176 271 225
244 236 238 229 223 227 230 226 225 224 223 224 231 243 265 314 245 332 315 329 309 319 5 62 48 154 137 75 70 111 202 196 319 352 54 54 64 111 110 161 218 255 26 12 121 292 221
238 231 232 228 222 225 227 223 222 221 222 224 230 232 224 269 285 336 7 296 344 333 267 334 342 78 71 75 82 146 237 210 236 305 336 6 10 103 106 220 292 273 314 334 84 243 219
232 227 230 224 219 223 224 220 220 218 219 221 229 227 224 254 271 280 286 299 344 356 104 351 36 3 53 72 118 203 147 256 55 316 70 143 111 198 79 51 312 240 305 190 248 281 242
230 227 223 220 215 221 221 217 219 215 216 219 235 229 229 234 258 262 270 267 282 285 280 353 124 150 142 92 110 125 124 66 145 252 93 317 176 188 173 222 245 272 258 277 296 290 295